EXPRESS-AT1

Last updated on Sun Mar 15 2026 00:02:54 GMT+0000 (Coordinated Universal Time)

1 39612U 14010A 26073.57964216 .00000077 00000+0 00000+0 0 9997 2 39612 0.0202 138.2478 0000350 301.6620 356.9946 1.00275440 43862
UTC large
Height (km)
Speed (km/s)
/
Latitude / Longitude
Inclination (degrees)
Orbital Period (minutes)
Azimuth
Elevation
Range (km)
Doppler Factor

Next 0 passes for location: London (51.5072 / 0.1276)

Sorry there are no passes over London.